Franklin I495 MA US MAEOT current weather conditions

sailwx.info

Last reported at 2020-Jan-24 10:55 UTC.
Time now 2020-Jan-24 11:17 UTC

Location: N 42°04' W 071°24'.
View on Google Maps.

See reports from other nearby stations

  
Tides and Currents Weather Stations Pressure Air Temp Water Temp Dewpoint Dewpoint Depression Visibility Wind Speed Wind Dir Waves Ship Positions
date/time (UTC)wind fromknots sea level pressurealtimeterstation pressurevisibilityair tempwater tempwave heightnotes
2020-Jan-24 10:55
2020-Jan-24 10:50 -2.1
2020-Jan-24 10:45
2020-Jan-24 10:40 173 2 gusting 6 -2.0
2020-Jan-24 10:35 173 2 gusting 6 -2.0
2020-Jan-24 10:30 154 1 gusting 5 -1.9
2020-Jan-24 10:25 181 1 gusting 3 -2.0
2020-Jan-24 10:20 163 1 gusting 3 -2.1
2020-Jan-24 10:10
2020-Jan-24 10:05 -2.4
2020-Jan-24 10:00 -2.5
2020-Jan-24 09:55
2020-Jan-24 09:50 -2.3
2020-Jan-24 09:45 -2.2
2020-Jan-24 09:40 -2.3
2020-Jan-24 09:35 -2.2
2020-Jan-24 09:30 -2.1
2020-Jan-24 09:25 -2.1
2020-Jan-24 09:20 -2.1
2020-Jan-24 09:15 -2.1
2020-Jan-24 09:10 352 0 gusting 1 -2.2
2020-Jan-24 09:05 023 0 -2.1
2020-Jan-24 09:00 -2.0
2020-Jan-24 08:55 004 1 gusting 3 -1.9
2020-Jan-24 08:50 185 1 gusting 3 -1.8
2020-Jan-24 08:45 170 1 gusting 3 -2.0
2020-Jan-24 08:40 171 1 gusting 4 -1.8
2020-Jan-24 08:35 178 2 gusting 4 -1.9
2020-Jan-24 08:30 179 2 gusting 5 -2.0
2020-Jan-24 08:25
2020-Jan-24 08:20 175 1 gusting 3 -2.2
2020-Jan-24 08:10
2020-Jan-24 08:05 176 1 gusting 3 -2.1
2020-Jan-24 07:55 -2.1
2020-Jan-24 07:50 -2.1
2020-Jan-24 07:45 003 0 -2.1
2020-Jan-24 07:40 -2.2
2020-Jan-24 07:35 -2.2
2020-Jan-24 07:30 -2.2
2020-Jan-24 07:25 -2.2
2020-Jan-24 07:20 -2.2
2020-Jan-24 07:15
2020-Jan-24 07:10 -2.3
2020-Jan-24 07:05
2020-Jan-24 07:00 -2.1
2020-Jan-24 06:55 159 0 gusting 3 -2.2
2020-Jan-24 06:50
2020-Jan-24 06:45 175 1 gusting 3 -2.2
2020-Jan-24 06:40 -2.2
2020-Jan-24 06:35 176 2 gusting 3 -2.1
2020-Jan-24 06:30 173 1 -2.0
2020-Jan-24 06:25 -2.2
2020-Jan-24 06:10 170 1 gusting 4 -2.2
2020-Jan-24 06:05 -2.1
2020-Jan-24 06:00 207 0 gusting 3 -2.0
2020-Jan-24 05:55 178 1 gusting 3 -2.1
2020-Jan-24 05:50 154 0 gusting 3 -2.1
2020-Jan-24 05:45 -2.0
2020-Jan-24 05:40 159 0 -2.1
2020-Jan-24 05:35 126 0 gusting 3 -2.2
2020-Jan-24 05:30
2020-Jan-24 05:25 -2.1
2020-Jan-24 05:20 180 2 gusting 3 -1.9
2020-Jan-24 05:15
2020-Jan-24 05:10 232 0 gusting 3 -1.6
2020-Jan-24 05:05 -1.9
2020-Jan-24 05:00 143 1 gusting 4 -1.8
2020-Jan-24 04:55 185 1 gusting 2 -1.8
2020-Jan-24 04:50 171 1 gusting 2 -1.8
2020-Jan-24 04:45 181 1 gusting 2 -1.7
2020-Jan-24 04:40 123 1 gusting 3 -1.9
2020-Jan-24 04:35 176 1 gusting 3 -1.7
2020-Jan-24 04:30
2020-Jan-24 04:25 159 0 gusting 2 -1.6
2020-Jan-24 04:20
2020-Jan-24 04:10 143 0 gusting 4 -1.4
2020-Jan-24 04:00 -1.4
2020-Jan-24 03:55 146 0 -1.4
2020-Jan-24 03:50 -1.4
2020-Jan-24 03:45
2020-Jan-24 03:40 -1.0
2020-Jan-24 03:35 -1.0
2020-Jan-24 03:30 -1.2
2020-Jan-24 03:25 -1.0
2020-Jan-24 03:20 110 1 gusting 4 -1.0
2020-Jan-24 03:15 157 1 gusting 4 -0.7
2020-Jan-24 03:10 171 1 gusting 3 -0.7
2020-Jan-24 03:05 169 1 gusting 5 -0.9
2020-Jan-24 03:00 179 3 gusting 5 -0.7
2020-Jan-24 02:55 158 1 gusting 3 -0.9
2020-Jan-24 02:50 151 0 gusting 5 -1.2
2020-Jan-24 02:45 174 2 gusting 5 -0.6
2020-Jan-24 02:40 177 1 gusting 6 -0.5
2020-Jan-24 02:35 188 2 gusting 6 -0.3
2020-Jan-24 02:30 193 1 gusting 4 -0.3
2020-Jan-24 02:25 161 1 gusting 4 -0.2
2020-Jan-24 02:20 181 1 gusting 4 -0.0
2020-Jan-24 02:15
2020-Jan-24 02:10 -0.1
2020-Jan-24 02:05 169 1 gusting 4 -0.1
2020-Jan-24 02:00 159 1 gusting 4 -0.2
2020-Jan-24 01:55 153 1 gusting 4 -0.3
2020-Jan-24 01:50 164 2 gusting 5 0.1
2020-Jan-24 01:45
2020-Jan-24 01:40 166 1 gusting 4 0.3
2020-Jan-24 01:35 178 2 gusting 4 0.7
2020-Jan-24 01:30 163 2 gusting 4 1.1
2020-Jan-24 01:25 172 1 gusting 4 1.2
2020-Jan-24 01:20
2020-Jan-24 01:15 164 1 gusting 4 1.5
2020-Jan-24 01:10 1.7
2020-Jan-24 01:05 1.7
2020-Jan-24 01:00
2020-Jan-24 00:55 2.0
2020-Jan-24 00:50 355 1 gusting 3 2.1
2020-Jan-24 00:45 016 1 gusting 2 2.1
2020-Jan-24 00:40 2.1
2020-Jan-24 00:35 338 1 gusting 3 2.3
2020-Jan-24 00:30 322 1 gusting 3 2.5
2020-Jan-24 00:25 348 0 gusting 3 2.2
2020-Jan-24 00:20
2020-Jan-24 00:15 284 1 gusting 3 2.2
2020-Jan-24 00:10 006 1 gusting 2 2.0
2020-Jan-24 00:00 194 1 gusting 5 2.3
2020-Jan-23 23:55 172 1 gusting 5 2.3
2020-Jan-23 23:50 181 2 gusting 5 1.6
2020-Jan-23 23:45 159 1 gusting 5 1.7
2020-Jan-23 23:40 164 1 gusting 5 1.8
2020-Jan-23 23:35 165 2 gusting 6 1.9
2020-Jan-23 23:30 177 3 gusting 6 2.3
2020-Jan-23 23:25 175 3 gusting 6 2.4
2020-Jan-23 23:20 163 1 gusting 6 2.1
2020-Jan-23 23:15
2020-Jan-23 23:10 166 2 gusting 6 2.6
2020-Jan-23 23:05
2020-Jan-23 23:00 164 2 gusting 6 2.5
2020-Jan-23 22:55 161 3 gusting 6 2.7
2020-Jan-23 22:50 168 3 gusting 6 2.9
2020-Jan-23 22:45 167 2 gusting 8 3.2
2020-Jan-23 22:40 178 3 gusting 8 3.5
2020-Jan-23 22:35 173 4 gusting 6 3.9
2020-Jan-23 22:25 199 2 gusting 7 4.3
2020-Jan-23 22:20 175 4 gusting 6 4.4
2020-Jan-23 22:15 179 2 gusting 5 4.9
2020-Jan-23 22:10 192 1 gusting 5 5.1
2020-Jan-23 22:05 186 2 gusting 6 5.4
2020-Jan-23 22:00
2020-Jan-23 21:55 182 1 gusting 4 5.5
2020-Jan-23 21:50 186 1 gusting 5 5.6
2020-Jan-23 21:45
2020-Jan-23 21:40 198 2 gusting 6 5.7
2020-Jan-23 21:35 219 1 gusting 4 5.8
2020-Jan-23 21:30 251 0 gusting 4 5.9
2020-Jan-23 21:25
2020-Jan-23 21:20 209 1 gusting 5 6.1
2020-Jan-23 21:15 246 1 gusting 5 6.2
2020-Jan-23 21:10 254 1 gusting 6 6.2
2020-Jan-23 21:05 233 2 gusting 6 6.3
2020-Jan-23 21:00
2020-Jan-23 20:55 227 1 gusting 5 6.5
2020-Jan-23 20:50 257 1 gusting 5 6.6
2020-Jan-23 20:45
2020-Jan-23 20:40 243 1 gusting 5 6.8
2020-Jan-23 20:35 276 1 gusting 5 7.0
2020-Jan-23 20:30 242 1 gusting 6 7.1
2020-Jan-23 20:25
2020-Jan-23 20:15 257 1 gusting 5 7.4
2020-Jan-23 20:10 222 2 gusting 5 7.4
2020-Jan-23 20:05 275 2 gusting 5 7.5
2020-Jan-23 20:00 250 2 gusting 5 7.5
2020-Jan-23 19:55 253 2 gusting 6 7.6
2020-Jan-23 19:50 252 3 gusting 6 7.7
2020-Jan-23 19:45
2020-Jan-23 19:40 271 2 gusting 8 7.7
2020-Jan-23 19:35 252 3 gusting 8 7.7
2020-Jan-23 19:30 243 4 gusting 7 7.8
2020-Jan-23 19:25 220 3 gusting 7 7.7
2020-Jan-23 19:20
2020-Jan-23 19:10 246 1 gusting 7 7.8
2020-Jan-23 19:05
2020-Jan-23 19:00 222 5 gusting 9 7.8
2020-Jan-23 18:55 237 4 gusting 9 8.0
2020-Jan-23 18:50 226 4 gusting 9 8.1
2020-Jan-23 18:45 243 1 gusting 9 7.8
2020-Jan-23 18:40 249 5 gusting 9 7.8
2020-Jan-23 18:35 258 4 gusting 7 8.1
2020-Jan-23 18:30 285 3 gusting 7 8.2
2020-Jan-23 18:25 206 3 gusting 7 7.7
2020-Jan-23 18:20 246 4 gusting 7 7.9
2020-Jan-23 18:15
2020-Jan-23 18:05 266 3 gusting 8 7.7
2020-Jan-23 18:00 248 3 gusting 9 7.2
2020-Jan-23 17:55 253 5 gusting 9 7.2
2020-Jan-23 17:50 250 2 gusting 8 6.8
2020-Jan-23 17:45 239 4 gusting 8 6.3
2020-Jan-23 17:40 229 3 gusting 7 6.3
2020-Jan-23 17:35 241 1 gusting 9 6.3
2020-Jan-23 17:30 242 6 gusting 9 6.4
2020-Jan-23 17:25 222 2 gusting 7 6.7
2020-Jan-23 17:15 270 3 gusting 10 6.4
2020-Jan-23 17:10 249 5 gusting 10 6.5
2020-Jan-23 17:05 247 3 gusting 10 6.7
2020-Jan-23 17:00 228 5 gusting 10 6.3
2020-Jan-23 16:55 231 4 gusting 9 6.3
2020-Jan-23 16:50 226 3 gusting 10 6.0
2020-Jan-23 16:45
2020-Jan-23 16:40
2020-Jan-23 16:35 243 5 gusting 11 5.6
2020-Jan-23 16:30 242 6 gusting 11 5.6
2020-Jan-23 16:25 265 3 gusting 9 5.6
2020-Jan-23 16:10 264 4 gusting 9 4.8
2020-Jan-23 16:05 269 3 gusting 9 5.0
2020-Jan-23 16:00 285 5 gusting 9 4.3
2020-Jan-23 15:55 264 3 gusting 9 4.7
2020-Jan-23 15:50 260 3 gusting 9 4.1
2020-Jan-23 15:45 237 5 gusting 9 4.1
2020-Jan-23 15:40 258 5 gusting 9 3.7
2020-Jan-23 15:35 244 2 gusting 9 3.4
2020-Jan-23 15:25 276 2 gusting 7 2.9
2020-Jan-23 15:20 258 3 gusting 7 2.9
2020-Jan-23 15:15
2020-Jan-23 15:10 260 3 gusting 9 2.2
2020-Jan-23 15:05 237 1 gusting 6 2.2
2020-Jan-23 15:00 269 1 gusting 6 1.2
2020-Jan-23 14:55 252 2 gusting 9 1.1
2020-Jan-23 14:50 246 1 gusting 9 -0.0
2020-Jan-23 14:45
2020-Jan-23 14:40 249 4 gusting 8 -2.8
2020-Jan-23 14:35 257 2 gusting 7 -2.8
2020-Jan-23 14:30 263 2 gusting 7 -2.8
2020-Jan-23 14:25 260 3 gusting 6 -2.8
2020-Jan-23 14:20 279 3 gusting 6 -2.8
2020-Jan-23 14:10 291 1 gusting 7 -2.8
2020-Jan-23 14:05 259 2 gusting 7 -2.8
2020-Jan-23 14:00 227 1 gusting 6 -2.8
2020-Jan-23 13:55 269 1 gusting 6 -2.8
2020-Jan-23 13:50 269 1 gusting 6 -2.8
2020-Jan-23 13:45
2020-Jan-23 13:40 269 2 gusting 6 -6.1
2020-Jan-23 13:35 198 1 gusting 6 -6.1
2020-Jan-23 13:30 223 2 gusting 6 -6.1
2020-Jan-23 13:25 263 1 gusting 4 -6.1
2020-Jan-23 13:20 259 1 gusting 6 -6.1
2020-Jan-23 13:15
2020-Jan-23 13:10 215 1 gusting 6 -6.1
2020-Jan-23 13:05 230 0 gusting 6 -6.1
2020-Jan-23 13:00 230 0 gusting 6 -6.1
2020-Jan-23 12:55
2020-Jan-23 12:50 213 3 gusting 7 -6.1
2020-Jan-23 12:45 192 1 gusting 11 -7.2
2020-Jan-23 12:40 213 2 gusting 11 -7.2
2020-Jan-23 12:35 206 4 gusting 9 -7.2
2020-Jan-23 12:30 194 4 gusting 8 -7.2
2020-Jan-23 12:25 188 3 gusting 8 -7.2
2020-Jan-23 12:20 185 3 gusting 6 -6.5
2020-Jan-23 12:15 173 3 gusting 6 -6.8
2020-Jan-23 12:10 166 2 gusting 6 -7.1
2020-Jan-23 12:05
2020-Jan-23 12:00 149 1 gusting 5 -8.4
2020-Jan-23 11:55 142 1 gusting 6 -8.3
2020-Jan-23 11:50
2020-Jan-23 11:45 157 3 gusting 6 -8.6
2020-Jan-23 11:40 164 3 gusting 6 -8.7
2020-Jan-23 11:35 155 3 gusting 6 -8.9
2020-Jan-23 11:30 157 2 gusting 6 -9.2
2020-Jan-23 11:25 173 3 gusting 6 -9.1
2020-Jan-23 11:20
2020-Jan-23 11:15 178 3 gusting 7 -8.6
2020-Jan-23 11:10 178 4 gusting 7 -8.5
2020-Jan-23 11:05 174 3 gusting 7 -8.5
2020-Jan-23 11:00 171 3 gusting 7 -8.4
2020-Jan-23 10:55 175 3 gusting 7 -8.5
2020-Jan-23 10:50 172 3 gusting 7 -8.4
2020-Jan-23 10:45 178 4 gusting 7 -8.5
2020-Jan-23 10:40 176 3 gusting 8 -8.8
2020-Jan-23 10:35 179 3 gusting 6 -8.9
2020-Jan-23 10:30 179 3 gusting 6 -8.9
2020-Jan-23 10:25 186 2 gusting 6 -8.9
2020-Jan-23 10:20 157 1 gusting 6 -9.5
2020-Jan-23 10:15
2020-Jan-23 10:10 177 3 gusting 6 -9.1
2020-Jan-23 10:05
2020-Jan-23 10:00 189 2 gusting 4 -9.2
2020-Jan-23 09:55 189 2 gusting 4 -9.3
2020-Jan-23 09:50 157 1 gusting 6 -9.5
2020-Jan-23 09:45 185 3 gusting 6 -9.4
2020-Jan-23 09:40 193 2 gusting 6 -9.0
2020-Jan-23 09:35 171 2 gusting 6 -9.1
2020-Jan-23 09:30 165 1 gusting 6 -9.2
2020-Jan-23 09:25 180 3 gusting 5 -9.4
2020-Jan-23 09:15 156 1 gusting 5 -9.3
2020-Jan-23 09:10 141 1 gusting 4 -9.2
2020-Jan-23 09:05 138 1 gusting 4 -9.5
2020-Jan-23 09:00 164 1 gusting 4 -9.2
2020-Jan-23 08:55 176 3 gusting 4 -9.5
2020-Jan-23 08:50 157 0 gusting 3 -9.5
2020-Jan-23 08:45 174 1 gusting 3 -9.3
2020-Jan-23 08:40 172 0 gusting 3 -9.6
2020-Jan-23 08:35 146 0 gusting 5 -9.8
2020-Jan-23 08:30 172 2 gusting 5 -9.7
2020-Jan-23 08:25 179 2 gusting 5 -9.3
2020-Jan-23 08:20 178 2 gusting 5 -9.3
2020-Jan-23 08:15 186 1 gusting 4 -9.2
2020-Jan-23 08:10 172 1 gusting 6 -9.1
2020-Jan-23 08:05 191 1 gusting 6 -8.9
2020-Jan-23 08:00 200 1 gusting 2 -9.3
2020-Jan-23 07:55 147 0 gusting 2 -9.4
2020-Jan-23 07:50 123 1 gusting 2 -9.0
2020-Jan-23 07:45 149 1 gusting 2 -8.8
2020-Jan-23 07:40 126 1 gusting 2 -8.8
2020-Jan-23 07:35 133 1 gusting 2 -9.4
2020-Jan-23 07:30 165 1 gusting 3 -9.0
2020-Jan-23 07:25 119 0 gusting 4 -8.9
2020-Jan-23 07:20 184 3 gusting 4 -8.7
2020-Jan-23 07:15
2020-Jan-23 07:10 176 1 gusting 4 -8.7
2020-Jan-23 07:05 179 1 gusting 4 -8.7
2020-Jan-23 07:00 175 2 gusting 4 -8.7
2020-Jan-23 06:55 189 2 gusting 4 -8.7
2020-Jan-23 06:50 191 1 gusting 3 -8.6
2020-Jan-23 06:45 174 1 gusting 4 -8.4
2020-Jan-23 06:40 178 1 gusting 4 -8.2
2020-Jan-23 06:35 188 0 gusting 3 -8.3
2020-Jan-23 06:30 193 1 gusting 3 -8.4
2020-Jan-23 06:25 171 1 -7.8
2020-Jan-23 06:20 -8.1
2020-Jan-23 06:15 165 1 gusting 5 -8.2
2020-Jan-23 06:10 199 1 -7.8
2020-Jan-23 06:00 179 1 gusting 4 -8.0
2020-Jan-23 05:55 174 1 gusting 4 -7.8
2020-Jan-23 05:50 175 2 gusting 4 -7.7
2020-Jan-23 05:45 175 1 gusting 3 -7.8
2020-Jan-23 05:40 150 0 gusting 3 -7.8
2020-Jan-23 05:35 157 0 gusting 3 -7.3
2020-Jan-23 05:30 176 2 gusting 3 -7.3
2020-Jan-23 05:25 163 0 -7.4
2020-Jan-23 05:20 -7.4
2020-Jan-23 05:15
2020-Jan-23 05:10 -6.8
2020-Jan-23 05:05 017 1 gusting 3 -6.9
2020-Jan-23 05:00 -6.7
2020-Jan-23 04:55 182 0 gusting 5 -7.0
2020-Jan-23 04:50 172 2 gusting 5 -7.0
2020-Jan-23 04:45 183 1 gusting 2 -7.0
2020-Jan-23 04:40 012 0 -7.0
2020-Jan-23 04:35 -7.0
2020-Jan-23 04:30 -6.8
2020-Jan-23 04:25 183 1 gusting 3 -6.6
2020-Jan-23 04:15 -6.4
2020-Jan-23 04:10 -6.4
2020-Jan-23 04:05
2020-Jan-23 04:00 157 1 gusting 6 -6.2
2020-Jan-23 03:55 180 1 gusting 6 -6.2
2020-Jan-23 03:50 183 3 gusting 6 -6.0
2020-Jan-23 03:45 172 0 gusting 5 -6.1
2020-Jan-23 03:40 169 2 gusting 5 -5.9
2020-Jan-23 03:35 200 1 gusting 4 -5.7
2020-Jan-23 03:30 180 1 gusting 3 -5.7
2020-Jan-23 03:25 -6.0
2020-Jan-23 03:20 155 1 gusting 4 -5.3
2020-Jan-23 03:15 113 2 gusting 5 -4.8
2020-Jan-23 03:10 126 1 gusting 5 -4.5
2020-Jan-23 03:05 149 3 gusting 6 -5.4
2020-Jan-23 03:00 172 4 gusting 6 -5.2
2020-Jan-23 02:50 160 1 gusting 6 -5.3
2020-Jan-23 02:45 -5.3
2020-Jan-23 02:40
2020-Jan-23 02:35 125 1 gusting 5 -4.7
2020-Jan-23 02:30 137 2 gusting 4 -5.0
2020-Jan-23 02:25 141 2 gusting 4 -5.6
2020-Jan-23 02:20
2020-Jan-23 02:15 144 1 gusting 4 -5.7
2020-Jan-23 02:10 163 1 gusting 4 -5.4
2020-Jan-23 02:05 152 1 gusting 4 -5.4
2020-Jan-23 02:00 173 2 gusting 4 -5.1
2020-Jan-23 01:55 180 1 gusting 5 -4.8
2020-Jan-23 01:45
2020-Jan-23 01:40 176 2 gusting 5 -4.6
2020-Jan-23 01:35 -4.7
2020-Jan-23 01:30 182 3 gusting 5 -4.5
2020-Jan-23 01:25 -5.2
2020-Jan-23 01:20 136 1 gusting 6 -4.8
2020-Jan-23 01:15 -4.6
2020-Jan-23 01:10 164 2 gusting 6 -4.2
2020-Jan-23 01:05 176 4 gusting 6 -4.2
2020-Jan-23 01:00 189 2 gusting 6 -3.9
2020-Jan-23 00:50 183 3 gusting 6 -3.7
2020-Jan-23 00:45 212 1 gusting 5 -3.4
2020-Jan-23 00:40
2020-Jan-23 00:35 171 3 gusting 4 -3.7
2020-Jan-23 00:30 177 2 gusting 4 -3.6
2020-Jan-23 00:25 153 1 gusting 5 -3.8
2020-Jan-23 00:20
2020-Jan-23 00:15 144 1 gusting 6 -4.1
2020-Jan-23 00:10 161 3 gusting 6 -3.5
2020-Jan-23 00:05 144 1 gusting 4 -3.4
2020-Jan-23 00:00 169 2 gusting 6 -3.3
2020-Jan-22 23:50 152 2 gusting 6 -3.1
2020-Jan-22 23:45 158 1 gusting 4 -3.1
2020-Jan-22 23:40 133 1 gusting 2 -3.0
2020-Jan-22 23:35 143 1 gusting 4 -2.9
2020-Jan-22 23:30 144 1 gusting 5 -2.9
2020-Jan-22 23:25 165 2 gusting 6 -2.3
2020-Jan-22 23:20
2020-Jan-22 23:15 170 3 gusting 5 -2.0
2020-Jan-22 23:10 158 3 gusting 6 -1.8
2020-Jan-22 23:05 167 3 gusting 6 -1.8
2020-Jan-22 23:00 173 3 gusting 6 -1.5
2020-Jan-22 22:55 172 3 gusting 6 -1.3
2020-Jan-22 22:50
2020-Jan-22 22:45 221 0 gusting 2 -0.8
2020-Jan-22 22:35 276 0 gusting 3 -0.8
2020-Jan-22 22:30 -0.5
2020-Jan-22 22:20 192 1 gusting 3 -0.1
2020-Jan-22 22:15 -0.0
2020-Jan-22 22:10 167 1 gusting 4 0.2
2020-Jan-22 22:05 283 1 gusting 4 0.5
2020-Jan-22 22:00 226 1 gusting 4 0.7
2020-Jan-22 21:55 0.6
2020-Jan-22 21:50 260 0 gusting 5 0.6
2020-Jan-22 21:45 218 2 gusting 5 0.9
2020-Jan-22 21:40 247 1 gusting 3 1.0
2020-Jan-22 21:35 288 1 gusting 3 1.2
2020-Jan-22 21:30 235 1 gusting 3 1.4
2020-Jan-22 21:25 258 1 gusting 3 1.5
2020-Jan-22 21:20 232 1 gusting 4 1.8
2020-Jan-22 21:10 276 1 gusting 4 1.9
2020-Jan-22 21:05 277 1 gusting 5 2.1
2020-Jan-22 21:00 286 2 gusting 5 2.3
2020-Jan-22 20:55 297 2 gusting 5 2.2
2020-Jan-22 20:50 247 1 gusting 5 2.1
2020-Jan-22 20:45 276 2 gusting 5 2.1
2020-Jan-22 20:40 272 2 gusting 6 2.4
2020-Jan-22 20:30 291 2 gusting 6 2.6
2020-Jan-22 20:25 319 3 gusting 6 2.3
2020-Jan-22 20:20 319 3 gusting 6 2.3
2020-Jan-22 20:15 317 2 gusting 6 1.9
2020-Jan-22 20:10 320 3 gusting 6 1.9
2020-Jan-22 20:05 319 3 gusting 6 2.0
2020-Jan-22 20:00 309 3 gusting 6 2.1
2020-Jan-22 19:55 303 3 gusting 6 2.1
2020-Jan-22 19:50 333 3 gusting 6 2.0
2020-Jan-22 19:45
2020-Jan-22 19:40 291 3 gusting 6 1.9
2020-Jan-22 19:35 284 3 gusting 9 1.7
2020-Jan-22 19:30 307 2 gusting 7 1.4
2020-Jan-22 19:25 307 2 gusting 7 1.5
2020-Jan-22 19:20 321 4 gusting 7 2.4
2020-Jan-22 19:15
2020-Jan-22 19:10 303 4 gusting 9 1.7
2020-Jan-22 19:05 328 5 gusting 8 1.6
2020-Jan-22 19:00 334 4 gusting 7 2.1
2020-Jan-22 18:55 309 2 gusting 7 2.1
2020-Jan-22 18:50 308 4 gusting 7 2.3
2020-Jan-22 18:45 244 2 gusting 7 2.0
2020-Jan-22 18:40 257 3 gusting 10 2.2
2020-Jan-22 18:35 294 4 gusting 10 1.5
2020-Jan-22 18:25 340 3 gusting 8 1.3
2020-Jan-22 18:20 320 5 gusting 8 1.4
2020-Jan-22 18:10 256 3 gusting 7 1.5
2020-Jan-22 18:05 247 5 gusting 7 1.2
2020-Jan-22 18:00 226 1 gusting 6 1.4
2020-Jan-22 17:55 254 1 gusting 9 1.3
2020-Jan-22 17:50 275 2 gusting 9 1.3
2020-Jan-22 17:45 268 2 gusting 9 1.1
2020-Jan-22 17:40 340 1 gusting 5 1.1
2020-Jan-22 17:35 212 1 gusting 7 1.0
2020-Jan-22 17:30 269 2 gusting 7 0.5
2020-Jan-22 17:25
2020-Jan-22 17:20 252 5 gusting 9 0.3
2020-Jan-22 17:15 222 3 gusting 9 0.3
2020-Jan-22 17:10
2020-Jan-22 17:05 295 1 gusting 5 0.8
2020-Jan-22 16:55 255 1 gusting 4 0.4
2020-Jan-22 16:50 282 1 gusting 5 0.2
2020-Jan-22 16:45
2020-Jan-22 16:40 324 2 gusting 6 -0.4
2020-Jan-22 16:35 277 2 gusting 6 -0.4
2020-Jan-22 16:30 297 3 gusting 6 -0.2
2020-Jan-22 16:25 298 2 gusting 6 -0.6
2020-Jan-22 16:20
2020-Jan-22 16:15
2020-Jan-22 16:10 348 3 gusting 6 -1.4
2020-Jan-22 16:05 329 2 gusting 6 -1.2
2020-Jan-22 16:00 349 3 gusting 6 -1.6
2020-Jan-22 15:55 333 2 gusting 5 -0.9
2020-Jan-22 15:50 316 0 gusting 4 -1.1
2020-Jan-22 15:45 301 1 gusting 4 -1.2
2020-Jan-22 15:40 330 1 gusting 5 -1.5
2020-Jan-22 15:35 306 2 gusting 5 -1.5
2020-Jan-22 15:30 321 1 gusting 4 -1.5
2020-Jan-22 15:25 343 1 gusting 4 -1.5
2020-Jan-22 15:20 331 2 gusting 6 -2.1
2020-Jan-22 15:05 306 2 gusting 5 -3.1
2020-Jan-22 15:00 306 2 gusting 5 -3.1
2020-Jan-22 14:55
2020-Jan-22 14:50 281 2 gusting 5 -3.5
2020-Jan-22 14:45
2020-Jan-22 14:40
2020-Jan-22 14:35 305 1 gusting 4 -4.3
2020-Jan-22 14:30 276 1 gusting 5 -5.0
2020-Jan-22 14:25 288 1 gusting 5 -5.2
2020-Jan-22 14:10 257 1 gusting 4 -5.9
2020-Jan-22 14:00 323 1 gusting 5 -7.2
2020-Jan-22 13:55 311 2 gusting 5 -7.4
2020-Jan-22 13:50 319 1 gusting 4 -7.7
2020-Jan-22 13:45 313 1 gusting 4 -7.8
2020-Jan-22 13:40 277 1 gusting 3 -8.0
2020-Jan-22 13:35 315 0 gusting 4 -8.5
2020-Jan-22 13:30 259 1 gusting 6 -8.7
2020-Jan-22 13:25 176 2 gusting 6 -8.9
2020-Jan-22 13:20 052 1 gusting 6 -9.1
2020-Jan-22 13:15 003 1 gusting 6 -9.3
2020-Jan-22 13:10 189 1 gusting 4 -9.6
2020-Jan-22 13:05
2020-Jan-22 13:00 334 1 gusting 4 -10.2
2020-Jan-22 12:55
2020-Jan-22 12:50 030 1 gusting 4 -10.4
2020-Jan-22 12:40 156 1 gusting 7 -11.0
2020-Jan-22 12:35 199 2 gusting 8 -11.0
2020-Jan-22 12:30 182 3 gusting 8 -11.0
2020-Jan-22 12:25 173 3 gusting 6 -11.1
2020-Jan-22 12:20 166 3 gusting 6 -11.4
2020-Jan-22 12:15
2020-Jan-22 12:10 175 3 gusting 7 -11.3
2020-Jan-22 12:05 184 1 gusting 7 -11.3
2020-Jan-22 12:00 168 3 gusting 6 -11.4
2020-Jan-22 11:55 182 2 gusting 5 -11.2
2020-Jan-22 11:50 164 2 gusting 5 -11.6
2020-Jan-22 11:45 167 2 gusting 5 -11.5
2020-Jan-22 11:40 144 1 gusting 5 -11.6
2020-Jan-22 11:35 160 2 gusting 5 -11.7
2020-Jan-22 11:30 163 2 gusting 5 -11.7
2020-Jan-22 11:25
2020-Jan-22 11:20 150 1 gusting 5 -12.5
2020-Jan-22 11:15
2020-Jan-22 11:10 186 0 gusting 3 -12.4
2020-Jan-22 11:05 -12.6
2020-Jan-22 11:00